RH
98 95 95 92 96 97 96 97 98 86 80 80 74 76 74 82 87 84 92 84 79 77 69 54 47 52 51 55 54 57 70 77 75 72 64 52 48 45 45 46 38 37 32 32 34
99 96 96 92 95 94 97 97 98 98 88 80 77 69 81 92 84 82 86 79 74 62 54 53 53 52 56 55 58 64 74 71 60 58 62 52 49 44 44 41 37 34 32 37 38
99 99 95 95 92 93 96 99 94 95 95 93 70 73 80 85 74 84 84 73 71 55 51 52 53 52 59 58 62 68 71 67 60 56 53 52 52 49 46 41 32 33 36 38 46
99 99 96 95 95 96 98 98 96 99 97 91 80 76 81 77 86 82 74 60 52 54 52 52 58 60 67 68 60 66 66 61 60 56 54 53 49 49 49 34 35 41 42 33 47
100 96 96 94 96 93 94 90 86 96 99 88 79 81 71 74 76 58 48 48 46 46 49 49 55 63 69 65 61 66 64 56 54 55 54 52 53 48 49 42 42 32 23 45 51
100 100 79 71 62 53 58 67 80 86 90 88 83 79 62 74 59 48 44 44 43 45 45 47 51 53 61 63 59 59 58 57 51 48 46 50 45 49 33 39 31 26 22 49 50
100 92 69 55 52 51 43 58 73 81 79 76 70 61 60 63 49 45 40 41 42 42 45 46 45 48 55 65 56 56 53 50 52 35 32 39 27 41 35 34 28 24 21 46 52
89 79 73 54 50 51 40 53 69 74 69 67 63 53 59 56 47 43 43 41 40 40 44 46 44 54 55 52 48 58 49 43 36 29 31 25 31 24 27 27 26 25 25 28 55
90 81 76 61 52 52 43 52 66 68 62 57 55 45 56 52 48 44 42 40 40 40 43 42 46 59 52 50 44 39 40 35 31 29 29 29 35 27 28 29 28 26 26 22 36
91 86 80 66 54 51 50 56 56 51 51 50 46 41 55 53 40 42 41 39 41 40 41 50 53 62 68 48 33 33 39 38 40 30 35 38 40 31 29 30 26 26 26 26 53
88 90 84 70 56 52 51 53 55 50 40 49 43 46 50 40 40 40 38 41 41 44 47 50 44 38 42 56 38 41 40 43 39 35 39 41 38 31 27 29 27 23 29 53 46
85 88 84 73 58 56 47 53 56 57 47 43 40 38 38 38 44 39 38 43 39 41 43 36 39 42 43 58 52 38 40 39 37 34 33 38 33 29 27 25 32 30 48 52 40
87 86 85 76 62 58 59 66 69 70 48 43 35 37 37 37 41 40 35 39 36 40 40 37 34 36 35 44 39 36 41 39 38 38 35 36 28 29 27 33 40 43 50 41 31
87 86 87 77 66 64 63 68 71 69 74 45 44 36 39 38 42 33 30 30 32 37 42 41 33 34 40 37 36 39 35 36 38 39 41 33 36 31 31 36 42 38 38 32 28
85 89 88 78 65 62 63 65 69 61 50 40 42 35 39 38 41 38 30 30 34 39 32 34 34 34 36 34 33 37 35 38 40 43 47 44 47 33 36 28 36 40 35 31 28
82 97 89 77 68 63 65 68 63 73 55 51 45 46 43 41 42 38 36 34 34 41 42 40 38 36 35 34 32 31 35 40 48 51 57 47 49 30 34 27 30 32 34 24 22
81 93 94 77 71 61 70 69 77 72 41 53 52 49 46 52 49 45 48 49 47 52 46 42 40 34 31 35 32 34 39 63 63 64 59 48 54 34 30 27 26 28 24 24 26
87 95 93 79 62 66 70 72 66 42 55 48 50 51 56 51 48 49 48 51 44 45 69 60 51 33 30 34 38 44 40 67 52 56 46 50 50 32 34 26 26 27 26 29 30
94 100 91 79 61 75 78 86 62 49 51 60 51 59 61 48 51 47 52 52 51 49 56 72 50 41 39 36 33 46 49 44 63 68 68 55 47 35 36 28 28 31 32 34 35
99 98 91 78 65 73 91 77 56 48 57 54 60 56 70 63 56 66 64 51 51 46 49 56 64 46 42 39 43 38 45 57 80 62 60 48 53 35 43 32 30 33 38 39 39
99 99 95 79 68 91 96 82 61 51 51 58 64 60 58 61 68 70 64 53 45 58 57 65 62 54 47 50 54 54 57 70 71 71 64 68 44 39 36 35 32 36 39 40 40
98 100 100 81 98 99 96 76 55 63 55 56 55 56 60 65 73 74 65 61 48 55 51 58 77 77 60 59 54 51 71 72 76 69 91 78 64 39 34 37 40 42 42 44 42
99 99 100 90 98 95 88 93 63 65 64 66 61 56 56 67 66 72 66 54 57 54 65 68 80 83 68 61 59 72 69 78 82 80 90 74 51 38 38 41 40 43 43 48 46
100 100 100 100 91 91 95 89 73 60 66 64 69 63 63 66 66 78 72 60 58 51 54 55 80 72 71 64 79 74 88 74 75 88 76 65 51 42 40 40 40 43 46 51 48
100 99 89 98 97 94 95 83 80 80 65 67 74 69 68 89 79 74 70 66 60 55 70 69 82 84 73 61 68 69 73 86 86 66 74 49 57 46 44 46 46 48 53 48 47
98 100 96 96 88 97 94 93 82 79 79 78 77 73 72 82 70 84 78 74 74 77 86 91 92 91 90 76 84 88 78 76 76 68 68 62 67 46 45 53 56 53 53 48 47
100 94 89 95 99 98 91 78 80 76 72 66 67 78 77 68 58 65 61 69 68 82 90 91 95 97 93 78 72 78 67 64 79 78 77 87 62 54 57 56 54 51 50 49 47
Wind_Speed
17 18 17 18 18 17 16 14 13 6 6 5 3 5 2 6 7 6 4 4 6 6 4 1 3 3 4 3 3 2 3 3 5 6 4 1 2 1 2 1 2 1 2 1 10
17 18 18 18 18 17 15 13 11 8 7 5 5 1 6 10 7 11 9 9 8 6 1 3 2 3 3 2 3 3 2 6 3 4 4 2 3 3 2 1 1 1 2 6 7
17 18 18 17 16 15 14 13 10 8 6 5 2 6 8 4 3 1 9 9 7 5 6 3 3 2 3 3 2 1 3 5 3 3 2 2 2 4 4 3 4 4 3 3 4
16 16 17 17 16 15 13 11 9 7 5 1 4 11 5 2 2 2 8 7 6 3 1 4 4 3 3 3 1 3 2 3 5 3 1 2 3 3 6 3 7 5 3 2 3
16 18 18 17 15 14 12 10 8 6 3 4 8 9 2 3 1 4 6 6 4 6 6 2 3 3 5 3 2 2 2 1 2 3 4 1 4 4 7 7 4 3 2 6 5
16 17 18 17 15 14 11 8 5 4 6 5 4 4 1 2 1 4 6 5 7 5 5 5 3 2 5 2 2 2 1 2 1 1 2 2 1 2 1 3 6 3 4 2 4
16 17 18 17 15 13 12 6 1 4 4 2 1 3 4 4 2 4 6 8 8 3 3 4 3 3 3 3 1 1 0 1 2 1 2 1 3 6 3 2 0 1 4 3 3
18 18 18 18 17 13 12 4 3 3 1 2 1 1 2 2 2 3 3 7 8 8 8 6 9 5 3 3 4 3 3 2 0 2 1 3 4 3 3 1 4 7 6 6 5
19 19 19 18 18 12 10 2 4 3 2 1 2 3 2 1 2 2 2 3 4 6 7 5 5 3 3 3 2 5 2 1 4 1 1 2 5 4 1 3 10 10 8 7 6
19 18 19 19 18 11 4 3 1 3 2 1 1 3 0 3 3 4 3 3 4 3 3 5 4 3 2 2 1 1 1 1 3 2 3 6 12 15 11 6 10 10 6 3 6
17 18 18 19 17 10 0 2 4 3 2 2 1 2 3 2 2 2 2 4 2 6 2 2 3 1 3 3 3 4 2 1 3 3 3 6 10 14 14 7 7 5 1 5 7
15 17 18 19 15 7 1 3 3 1 1 2 2 1 3 3 2 0 2 2 2 2 1 3 1 3 5 4 3 2 1 3 3 1 2 7 18 8 4 2 1 2 4 7 5
14 15 17 18 9 5 2 4 3 2 2 3 3 3 3 5 2 4 3 2 3 2 2 3 1 3 1 2 2 2 3 2 3 5 1 7 5 2 2 3 4 5 4 4 5
16 14 13 15 4 2 0 4 4 3 4 4 4 3 3 4 1 1 2 3 2 3 4 2 1 2 2 2 4 2 2 2 1 3 3 5 5 3 0 2 2 3 3 3 2
16 14 11 9 6 1 1 4 7 2 3 3 3 3 2 4 6 1 0 2 5 4 3 2 3 2 2 2 4 2 2 1 1 2 2 1 0 4 2 3 3 3 3 3 3
14 14 10 5 4 3 4 7 3 5 6 5 4 6 4 1 2 2 1 4 2 3 3 2 1 2 3 2 1 2 3 4 3 2 1 2 2 3 4 5 4 3 5 2 5
13 13 11 6 2 7 9 1 4 4 2 5 5 5 4 4 3 4 4 3 5 4 1 1 1 1 2 2 1 3 4 3 3 2 2 1 3 7 3 4 7 7 5 1 4
13 12 12 7 7 11 4 4 3 4 6 2 4 4 5 5 2 3 3 3 2 4 3 4 2 4 1 1 3 2 3 4 4 2 3 2 6 2 3 3 6 5 4 3 7
15 13 6 11 11 14 4 2 8 7 7 10 3 4 4 2 4 3 6 4 6 6 5 4 2 1 3 2 1 2 1 1 5 2 1 2 6 8 6 4 5 4 2 7 9
20 11 7 16 16 7 3 6 5 4 7 3 9 5 7 6 4 4 6 3 5 4 2 5 3 1 0 3 5 1 6 3 3 1 4 3 6 5 3 9 8 5 6 8 8
14 4 9 25 18 3 4 7 6 4 4 7 8 5 4 7 7 4 4 0 2 3 5 4 3 2 0 4 6 3 2 5 4 2 3 3 6 5 6 9 9 5 7 8 10
6 4 21 29 3 3 4 6 4 5 1 3 4 4 7 6 5 3 7 3 7 7 6 2 4 3 2 1 2 1 5 5 4 4 1 0 8 3 5 9 7 6 7 7 11
4 3 12 7 6 8 4 4 6 6 5 6 5 3 3 7 3 4 4 1 7 6 7 7 1 2 4 3 4 3 4 4 4 3 7 4 5 1 2 5 8 7 8 8 10
4 4 3 3 1 6 6 5 6 3 4 4 5 5 4 3 2 7 5 2 5 4 6 7 3 5 5 5 4 2 3 5 5 3 5 10 8 8 7 9 10 10 10 8 8
4 4 6 6 10 9 3 5 8 7 2 4 1 5 8 4 3 6 4 3 2 1 4 4 4 3 4 5 4 6 9 8 11 12 7 12 10 20 12 10 11 11 6 7 9
6 4 1 4 5 17 11 6 10 5 9 6 5 10 7 7 8 9 8 5 6 3 4 2 2 2 5 2 6 11 17 15 13 16 17 23 26 23 17 6 5 9 6 9 10
5 4 5 11 6 9 11 17 8 8 4 3 9 7 7 6 3 4 3 5 9 9 5 6 5 3 4 4 6 8 11 15 7 7 7 8 11 3 3 3 6 8 6 9 11
Wind_Direction
5 3 358 353 352 351 347 345 340 326 334 2 356 309 340 100 113 99 57 358 343 325 316 316 24 86 80 78 52 132 90 175 183 162 146 155 144 209 350 285 352 43 110 45 340
2 359 357 355 351 348 344 340 337 329 307 280 283 281 135 115 96 61 12 12 6 360 87 80 41 39 56 56 28 87 158 189 151 141 144 175 179 196 149 319 217 17 295 347 29
360 357 353 350 348 347 345 343 342 337 331 317 237 169 137 80 74 10 359 357 6 32 71 87 87 72 74 47 15 126 184 158 156 148 140 172 216 177 175 194 193 181 256 351 56
358 355 351 349 346 345 343 340 336 332 327 332 153 153 148 350 156 351 354 16 24 359 93 57 41 65 90 127 9 108 121 146 164 143 149 211 148 206 199 203 146 191 226 167 100
358 355 349 347 343 343 343 345 348 346 12 72 136 157 161 47 94 351 12 19 36 56 61 83 69 116 136 129 100 118 169 213 159 268 227 192 215 226 230 232 221 173 53 133 108
354 350 347 346 344 347 344 348 4 67 90 99 137 160 117 76 24 20 27 46 48 68 52 47 127 131 106 94 114 139 177 254 288 181 208 223 191 171 160 139 147 94 16 156 119
346 346 344 346 345 346 343 341 14 125 98 66 150 165 70 159 54 70 56 49 45 58 83 53 96 71 127 110 121 97 352 306 207 151 144 167 254 230 222 229 99 15 345 225 185
334 340 340 343 346 340 334 300 192 168 94 19 153 170 139 146 95 75 90 70 72 72 82 75 92 95 61 112 33 61 59 122 143 335 201 92 262 280 143 47 298 304 285 250 220
324 331 337 341 342 335 332 247 195 203 286 311 231 114 188 185 129 104 113 113 87 65 71 72 68 80 46 83 42 20 147 29 325 343 316 148 273 257 187 331 292 287 282 245 228
315 324 332 336 337 334 330 148 229 246 228 98 115 52 313 212 150 123 130 114 91 76 36 41 52 76 52 82 230 173 98 301 261 339 356 280 267 276 280 250 276 290 299 250 189
306 316 327 333 333 332 255 150 26 330 51 211 213 124 132 142 129 94 123 107 83 53 81 15 73 175 208 170 122 117 101 281 258 295 274 268 281 289 292 261 266 275 17 149 161
297 308 321 330 327 320 222 131 135 168 269 214 167 105 127 167 116 152 128 99 81 118 93 32 166 173 106 131 119 95 108 276 296 293 300 315 298 302 343 47 318 275 146 152 158
287 295 313 327 321 299 75 133 126 99 127 232 198 172 178 148 168 180 135 140 111 108 106 136 105 108 113 131 143 202 193 226 253 333 63 310 287 352 5 31 27 51 127 146 165
279 283 302 322 303 306 335 145 144 78 65 207 214 218 127 129 94 139 122 132 64 140 149 203 292 146 118 182 154 268 186 184 278 2 286 4 287 290 330 63 73 89 128 144 188
275 275 285 313 299 213 194 158 141 87 2 167 165 150 137 152 134 231 224 67 156 159 126 187 141 132 159 202 181 203 60 85 75 150 22 5 221 272 311 222 195 196 188 222 297
267 269 265 288 243 217 163 150 125 52 259 186 135 172 129 148 150 127 150 53 112 106 44 223 300 173 181 81 106 116 101 60 67 103 359 245 208 252 193 194 161 173 185 215 336
256 258 239 242 204 173 156 85 49 148 17 195 189 169 173 162 172 180 172 178 169 114 191 338 203 276 148 120 64 80 52 326 343 6 220 331 242 263 226 189 169 165 153 80 294
235 238 216 225 189 162 153 54 138 206 195 130 127 102 175 155 179 151 137 244 247 100 114 150 297 162 45 153 152 92 141 151 255 291 303 344 240 259 239 188 147 145 155 299 293
211 204 199 199 183 169 88 111 211 199 164 144 65 142 221 192 145 157 195 216 191 172 158 129 241 8 69 55 91 162 80 135 102 76 329 254 285 274 222 176 186 176 309 299 298
184 168 199 185 172 147 96 236 235 179 127 129 169 162 177 186 161 174 189 196 179 184 112 186 75 360 81 121 40 152 140 90 23 33 275 281 272 248 184 199 202 241 290 288 279
167 161 166 163 148 66 196 224 229 226 145 152 181 146 179 168 167 201 208 263 163 96 77 129 91 248 330 204 171 144 152 68 111 150 210 298 260 206 220 201 194 243 278 281 288
175 169 162 153 153 196 203 195 179 169 196 122 118 117 159 156 148 208 205 233 162 150 145 140 131 176 181 38 5 132 175 149 138 224 165 92 267 263 219 170 163 223 247 269 324
179 124 171 175 192 210 234 261 206 154 190 163 151 155 155 160 133 160 188 156 153 152 162 182 76 37 351 4 359 217 183 124 107 94 194 169 255 163 228 232 254 293 313 319 304
141 153 137 198 170 160 183 226 203 211 164 143 132 103 113 121 45 161 163 191 170 153 144 120 128 180 196 202 140 189 215 194 144 175 185 228 262 248 233 253 283 292 298 296 292
153 221 171 186 209 180 154 197 162 175 196 172 101 206 159 123 111 165 157 129 81 200 90 113 189 181 230 185 187 218 218 193 199 215 230 266 265 272 280 287 287 284 279 290 287
161 176 93 126 135 191 193 227 192 164 153 206 199 177 179 152 183 185 139 184 182 65 127 345 186 125 297 264 222 253 250 230 218 242 254 266 276 280 281 279 275 282 275 271 274
132 164 144 158 150 174 213 212 206 142 234 200 170 134 169 196 138 109 85 130 156 144 149 146 132 118 258 351 312 266 252 213 186 195 192 211 241 292 265 247 256 279 260 269 280